Regional Weather Roundup
Issued by NWS Midland/Odessa, TX

Skip options and go directly to product.
Home | Oldest Version | Previous Version | Current Version | All | Graphics & Text | Save Text | Print | Product List | Glossary On

Skip product version selection by date and time.   
045
ASUS44 KMAF 270110
RWRMAF
MIDLAND AREA WEATHER ROUNDUP
NATIONAL WEATHER SERVICE MIDLAND TX
800 PM CDT TUE JUL 26 2016

...IN SOUTHWEST TEXAS AND SOUTHEAST NEW MEXICO...

CITY           SKY/WX    TMP DP  RH WIND       PRES   REMARKS
ALPINE         CLOUDY    76  65  70 CALM      30.13F
ANDREWS        TSTM      72  70  93 E7        30.04R
ARTESIA        CLOUDY    84  61  45 S7        30.01S
BIG SPRING     PTCLDY    93  60  32 NE10      29.97R
CARLSBAD       CLOUDY    77  68  73 S10       29.99F
DRYDEN         NOT AVBL
FORT STOCKTON  CLOUDY    86  63  45 E13       29.99R
GUAD PASS      CLOUDY    73  59  61 NE21      30.18R
HOBBS          PTSUNNY   82  63  51 S5        30.02F
MARFA          CLOUDY    77  62  59 E12       30.12R
MIDLAND AIRPK  CLOUDY    74  69  83 N22G33    30.01R
MIDLAND INTL   LGT RAIN  77  68  73 N32G39    30.00R
ODESSA         LGT RAIN  77  67  71 NE21G30   30.03R
PECOS          CLOUDY    85  62  44 NE10      29.96R
PRESIDIO       MOCLDY    95  57  27 NE20G29   29.89R
SEMINOLE       CLOUDY    83  62  48 SE15G23   30.05R
SNYDER           N/A     90  63  40 E8        29.95S
WINK           CLOUDY    81  67  62 SE6       29.96S
$$
...OTHER STATIONS IN TEXAS...

CITY           SKY/WX    TMP DP  RH WIND       PRES   REMARKS
ABILENE        CLOUDY    93  64  38 SE12      29.92S
AMARILLO       CLEAR     86  60  41 SE23      30.02R
AUSTIN         MOCLDY    81  75  82 SW6       29.90R
BROWNSVILLE    PTCLDY    86  77  74 SE16G25   29.85S
CORPUS CHRISTI CLOUDY    86  76  71 SE16      29.86S
DALLAS FTW     CLOUDY    90  71  53 E3        29.88R
DEL RIO        CLOUDY    76  72  87 CALM      29.90F
EL PASO        PTSUNNY   89  57  33 E9        29.98F
HOUSTON INT    CLOUDY    82  73  74 SW5       29.90R
LUBBOCK        PTCLDY    89  58  34 SE17      30.00R
SAN ANGELO     CLEAR     94  62  34 E14       29.91R
SAN ANTONIO    CLOUDY    81  71  71 SE6       29.92R
WACO           CLEAR     92  67  43 SE7       29.87R
WICHITA FALLS  NOT AVBL
$$
...OTHER LOCATIONS IN NEW MEXICO...

CITY           SKY/WX    TMP DP  RH WIND       PRES   REMARKS
ALAMAGORDO     MOSUNNY   91  54  27 S13       30.00S
ALBUQUERQUE    CLOUDY    90  48  23 N16       30.09R
CANNON AFB     CLOUDY    81  60  48 SE9       30.07S
CLOVIS         CLOUDY    81  57  44 S12       30.07S
HOLLOMAN AFB   CLOUDY    93  54  26 S15       29.98R
ROSWELL        CLOUDY    87  57  35 SW9       30.00F
RUIDOSO          N/A     73  54  49 E8        30.27R
SANTA FE       CLOUDY    83  46  27 N10       30.20R
TRUTH OR CONSE PTSUNNY   87  51  28 NW13      30.06S
TUCUMCARI      SUNNY     91  55  29 S14G21    30.01S
$$

USA.gov is the U.S. government's official web portal to all federal, state and local government web resources and services.